Location: Brodeslavy
(49.9527°N, 13.5567°E)
Time: 15:06:59
(UTC+00:00)

Cosmos 1328 Rocket - Pass Details

Date: 17 June 2025
Orbit: 595 x 620 km, 82.5° (Epoch: 19 July)

Event Time Altitude Azimuth Distance (km) Brightness Sun altitude
Rises 20:10:22 0° 200° (SSW) 2,874 6.7 -6.9°
Reaches altitude 10° 20:12:37 10° 204° (SSW) 1,977 5.9 -7.1°
Maximum altitude 20:16:56 56° 284° (WNW) 740 4.3 -7.5°
Drops below altitude 10° 20:21:17 10° 3° (N) 2,000 7.0 -8.0°
Sets 20:23:35 0° 7° (N) 2,912 7.8 -8.2°
